Theta_e
294 295 295 295 296 297 297 299 301 303 305 304 307 309 311 315 321 322 327 328 329 331 331 329 329 329 330 327 325 324 322 321 319 319 317 317 317 317
292 292 292 292 293 293 295 296 298 300 302 303 304 305 308 312 314 320 324 326 328 330 331 330 328 328 330 329 327 325 324 323 320 319 318 317 317 317
290 289 290 290 291 292 293 294 295 296 299 300 300 302 305 309 314 317 320 323 328 329 331 331 328 327 327 329 328 326 325 324 323 321 320 318 317 317
287 287 288 289 290 291 292 293 294 295 296 297 297 299 300 304 307 313 319 319 322 324 329 331 330 327 327 329 329 327 326 325 325 323 322 321 320 318
286 286 287 288 290 291 292 293 294 295 294 294 294 295 299 302 305 311 315 319 321 322 324 327 330 330 328 328 329 328 328 327 326 325 324 323 322 322
285 287 288 289 289 290 290 291 292 293 293 293 292 294 297 299 302 308 316 317 320 320 319 319 319 329 330 328 329 328 328 328 327 327 326 325 324 324
285 286 287 287 287 288 289 290 290 291 291 292 291 291 293 296 303 308 313 316 319 319 321 315 315 319 321 330 329 328 328 328 328 327 327 326 325 325
285 285 284 285 286 286 286 285 284 285 286 287 288 288 289 292 295 301 308 314 317 319 317 315 315 315 319 318 324 327 328 328 328 328 327 327 327 326
283 282 283 284 284 284 282 282 282 283 284 285 286 287 288 289 292 296 300 307 316 319 318 313 311 313 320 318 323 327 328 327 326 327 327 327 327 327
281 281 282 282 282 281 280 281 282 282 283 284 286 287 288 289 292 296 299 298 308 316 316 310 304 306 307 315 318 323 326 327 326 326 327 327 327 327
279 280 280 280 279 279 280 280 281 282 282 282 282 282 283 284 286 290 293 295 304 306 312 309 296 295 298 301 309 313 318 323 326 326 326 327 327 326
278 278 278 278 278 279 279 279 280 279 280 281 281 282 283 284 285 286 290 294 301 299 308 307 294 296 296 296 297 304 309 313 316 321 325 325 325 322
277 276 277 278 278 278 278 278 279 278 279 280 280 281 283 284 286 288 290 295 302 309 312 309 297 296 294 290 292 294 299 302 306 306 311 314 316 321
276 275 276 277 276 276 276 277 277 277 278 279 279 280 282 283 285 290 292 298 307 312 314 313 306 300 292 291 291 290 292 294 298 297 299 299 301 303
275 276 275 275 274 274 275 275 275 276 277 277 278 279 281 283 284 286 292 297 312 314 313 307 312 303 304 294 290 290 289 290 293 293 293 294 296 297
274 274 274 274 273 273 273 274 274 275 275 276 277 278 281 283 285 290 294 302 308 303 304 307 312 308 302 298 297 291 291 289 290 290 291 291 292 293
274 273 273 273 272 272 272 272 273 273 274 275 276 278 281 283 285 291 299 303 304 296 298 302 304 304 306 299 295 294 291 290 290 289 290 288 289 290
273 272 272 272 272 271 271 272 272 272 273 274 275 277 280 282 284 286 297 304 300 298 294 294 296 296 295 294 295 292 292 290 289 288 289 289 288 288
272 272 271 271 271 271 271 271 271 271 272 272 274 276 279 281 284 284 286 295 297 297 295 295 299 302 300 293 289 292 292 289 288 289 289 289 287 286
271 271 271 271 271 271 270 270 270 270 270 271 273 274 278 280 282 284 284 286 293 294 294 295 300 302 303 292 289 290 291 289 289 289 287 285 283 286
271 270 270 270 270 270 270 269 269 269 269 270 271 274 277 280 281 283 284 284 285 290 291 289 292 296 295 292 290 288 288 289 290 287 284 284 284 284
270 270 270 269 269 269 269 269 269 268 268 269 270 273 276 279 280 281 284 285 285 285 286 287 290 292 292 292 291 287 286 287 286 284 286 285 284 283
269 269 269 269 268 268 268 268 268 267 268 268 270 273 275 277 279 281 282 284 284 284 285 286 287 288 288 287 286 285 283 283 283 283 283 284 283 282
Wind_Speed
22 20 20 23 24 24 24 24 19 16 14 23 28 31 43 40 37 36 32 34 45 52 62 63 60 59 57 55 53 51 48 48 46 45 43 43 44 40
21 22 24 25 26 27 28 26 26 25 16 24 30 32 38 43 46 39 36 35 39 48 56 64 67 63 60 58 57 53 50 49 48 46 44 42 44 41
25 26 27 28 27 25 26 27 28 28 17 27 32 35 36 38 41 42 39 35 34 40 51 60 70 67 64 64 60 55 53 51 49 47 46 44 44 41
29 29 29 29 29 27 28 28 28 29 28 19 30 35 34 32 41 44 41 39 34 36 41 60 68 72 71 68 63 58 55 53 51 49 49 47 43 43
28 30 30 31 29 28 27 27 28 25 29 32 29 33 36 31 33 39 40 38 34 35 38 44 65 66 73 70 66 62 58 57 54 53 50 48 45 43
29 28 29 29 29 29 31 31 31 28 27 27 31 29 31 33 34 35 34 33 33 32 38 44 48 61 66 71 69 65 62 60 57 55 53 50 48 44
31 29 28 30 31 29 28 30 30 28 27 26 27 27 26 25 24 28 32 32 32 35 33 21 30 51 59 68 71 69 66 62 59 57 55 50 50 46
30 33 33 30 27 29 25 26 31 32 31 29 30 25 29 28 30 32 31 24 12 29 31 31 29 37 42 50 61 65 67 65 60 58 55 53 48 47
29 33 35 30 29 29 34 34 34 34 34 36 36 36 35 32 32 33 36 32 27 23 26 24 36 37 39 42 54 61 63 64 63 61 56 53 49 47
31 32 30 33 32 38 40 36 33 31 32 33 35 39 39 38 36 34 34 34 38 27 31 8 23 22 29 40 44 51 57 60 59 61 56 55 50 47
32 29 30 30 36 40 38 34 35 32 30 34 41 47 50 52 51 38 37 24 14 10 29 20 12 12 15 17 28 35 45 52 54 53 54 52 50 47
32 29 31 33 39 39 37 34 31 37 42 43 41 37 38 41 44 44 39 25 17 2 22 20 12 12 2 9 13 20 30 36 42 49 50 51 49 44
31 33 34 38 39 38 36 33 39 44 40 34 37 36 34 34 36 35 39 41 32 25 23 33 14 13 6 7 10 18 24 29 33 33 37 42 44 46
31 33 34 38 38 37 35 37 38 35 33 35 33 33 33 34 35 36 38 41 48 41 33 47 19 22 9 5 4 18 23 28 32 34 33 31 30 30
33 31 34 37 37 37 40 40 39 35 35 33 33 36 38 41 42 41 39 42 44 44 43 47 43 41 35 15 12 18 24 21 31 35 34 35 35 33
36 33 33 34 34 35 38 40 39 38 36 35 36 41 40 38 37 32 31 30 24 18 31 37 43 45 23 20 24 26 17 14 33 33 33 30 30 32
33 32 33 36 37 39 40 40 41 42 40 41 40 40 39 38 34 26 30 20 10 10 13 18 25 28 24 29 14 31 30 17 33 32 32 25 26 29
29 30 30 33 33 36 37 39 41 42 42 42 41 40 38 36 35 33 14 16 5 10 11 19 28 19 15 9 18 29 24 25 32 34 28 26 21 24
28 28 30 32 34 35 37 38 39 42 43 41 41 42 40 38 34 28 27 7 3 14 18 25 26 15 7 2 4 27 30 34 34 29 27 25 23 28
29 29 30 32 34 35 38 39 41 42 44 45 43 43 41 36 31 26 24 14 7 5 10 12 18 25 10 6 6 12 32 39 37 32 30 30 30 35
30 31 30 33 34 36 37 39 41 42 43 43 42 43 42 39 33 27 28 28 20 6 5 2 5 4 27 27 12 11 21 25 33 43 45 39 31 26
30 31 32 33 34 36 38 39 41 43 43 42 44 44 44 40 35 33 28 20 16 10 9 15 18 24 9 6 10 15 24 28 29 32 33 27 29 10
30 31 32 32 35 36 37 39 40 42 42 43 44 44 44 40 40 36 30 23 18 17 13 10 14 19 18 20 23 18 28 32 31 25 24 24 16 33
Wind_Direction
315 316 316 310 306 301 297 292 293 299 294 297 293 293 296 301 284 282 268 252 234 237 221 218 216 218 220 218 218 219 219 219 221 220 220 220 223 223
320 320 314 308 306 301 294 290 288 287 291 296 293 292 291 294 294 293 281 265 256 243 231 222 218 219 219 221 220 218 219 219 219 220 221 220 223 223
323 317 312 307 303 301 297 293 290 288 287 295 296 298 295 290 291 286 280 276 262 254 244 229 222 219 220 220 221 220 220 220 220 222 221 222 223 223
320 316 311 307 303 299 295 289 288 287 286 293 299 296 290 287 285 287 279 267 264 259 253 241 225 221 222 220 219 220 221 222 222 223 222 223 224 224
317 311 309 306 303 300 294 297 295 294 293 290 293 294 291 292 287 281 280 275 255 252 250 249 235 225 221 222 221 221 221 222 223 223 223 224 224 226
317 314 312 310 311 312 306 300 295 292 293 290 292 291 292 293 282 279 276 266 257 249 258 250 244 229 226 222 223 223 221 223 223 223 224 225 226 228
323 321 320 317 313 311 315 310 305 298 292 290 291 291 287 289 287 278 279 270 256 245 233 240 243 226 225 223 225 225 225 223 225 224 225 225 228 229
329 326 324 322 323 322 321 320 317 308 298 292 288 284 283 280 281 282 279 284 255 248 241 232 231 223 217 222 220 226 226 228 227 227 227 227 228 232
334 330 325 327 331 330 328 317 308 300 288 283 280 278 281 279 276 274 275 274 271 233 220 230 229 246 232 224 224 224 227 226 227 229 229 230 231 233
335 331 331 332 333 332 325 317 310 304 298 289 282 283 283 281 275 271 274 293 273 251 208 190 199 199 213 213 220 223 225 226 227 228 228 230 231 234
338 335 337 334 335 332 328 322 317 312 311 304 296 288 282 276 271 275 265 277 272 238 191 179 178 161 186 207 210 214 219 222 224 226 225 227 227 229
340 337 339 337 336 337 334 330 324 323 318 313 306 297 289 279 271 255 253 249 250 244 200 174 153 148 177 183 208 205 207 209 215 220 220 223 224 218
340 339 335 339 339 339 340 336 330 326 317 313 312 305 298 289 279 260 242 238 238 239 228 185 163 152 127 132 168 195 193 187 193 200 209 212 213 214
342 337 339 341 343 343 341 338 335 330 328 322 318 312 307 304 291 271 253 244 235 234 240 201 186 164 129 116 168 178 185 179 179 179 183 186 192 197
345 340 343 345 344 342 343 343 342 339 333 328 323 319 311 304 293 277 258 250 233 226 233 201 193 177 171 151 151 168 155 177 176 170 174 179 181 183
349 347 344 344 346 346 345 345 342 340 336 332 325 320 315 315 306 269 248 228 200 167 201 196 194 181 174 168 156 160 175 163 173 170 168 171 181 186
349 349 351 352 350 348 347 344 343 342 340 338 333 327 326 326 322 302 232 205 186 145 157 173 171 181 185 164 149 167 163 150 169 163 160 155 170 178
356 355 353 352 350 347 344 342 342 341 339 338 336 332 333 333 334 333 290 192 169 155 140 148 137 115 113 94 160 155 156 153 162 162 160 148 148 169
1 357 353 350 348 347 345 343 340 339 338 340 339 336 339 340 341 342 333 6 165 154 161 159 164 165 176 146 90 168 151 153 152 156 158 160 148 149
1 354 352 350 348 347 347 344 342 341 343 343 340 339 342 344 345 348 336 3 347 119 138 161 182 172 163 181 137 170 168 154 157 151 140 126 127 145
353 352 352 351 348 347 347 346 344 344 343 342 340 341 342 348 346 342 4 8 345 355 98 55 112 180 135 131 109 123 150 165 162 151 143 133 135 139
350 351 348 352 349 348 348 348 347 347 345 344 342 342 344 348 348 353 359 0 343 2 68 99 123 133 129 127 132 138 134 137 146 146 150 149 153 158
348 348 347 351 350 348 350 349 349 346 345 343 342 342 345 348 350 352 352 359 7 18 21 61 84 100 113 120 123 121 118 126 134 130 119 138 146 137